Regional Weather Roundup
Issued by NWS

Home | Current Version | Previous Version | Graphics & Text | Print | Product List | Glossary On
Versions: 1 2 3 4 5 6 7 8 9 10 11 12 13 14 15 16 17 18 19 20 21 22 23 24 25 26 27 28 29 30 31 32 33 34 35 36 37 38 39 40 41 42 43 44 45 46 47 48 49 50
000
ASUS43 KFSD 231002
RWRSD

WEATHER ROUNDUP FOR SOUTH DAKOTA
NATIONAL WEATHER SERVICE SIOUX FALLS SD
400 AM CST TUE JAN 23 2018

NOTE: "FAIR" INDICATES FEW OR NO CLOUDS BELOW 12,000 FEET WITH NO
SIGNIFICANT WEATHER AND/OR OBSTRUCTIONS TO VISIBILITY.


SDZ001>005-009-010-012>017-231100-
NORTHWEST AND NORTH CENTRAL SOUTH DAKOTA

CITY           SKY/WX    TMP DP  RH WIND       PRES   REMARKS
BUFFALO          N/A     26  20  77 W10       29.97S WCI  16
FAITH            N/A     28  22  78 W13       30.02F WCI  17
MOBRIDGE       FOG       20  18  92 S6        30.01F VSB 1/2 WCI  12
$$

SDZ012>016-024>037-041>051-057-063-072>074-231100-
SOUTHWEST AND SOUTH CENTRAL SOUTH DAKOTA

CITY           SKY/WX    TMP DP  RH WIND       PRES   REMARKS
RAPID CTY ARPT CLOUDY    31  26  82 NW7       30.07F WCI  24
PIERRE         FOG       20  20 100 W3        30.06S VSB 1/2
CUSTER         MOCLDY    24  16  71 W5        30.02R WCI  18
ELLSWORTH AFB  CLOUDY    30  29  97 W6        30.06F WCI  24
PHILIP         CLOUDY    26  23  88 W6        30.06S WCI  19
PINE RIDGE     CLOUDY    22  17  81 CALM      30.11R
SPEARFISH        N/A     30  25  80 W9        30.06F WCI  22
WINNER         FOG       12   8  84 SW5       30.06F VSB 1/4 WCI   4
$$

SDZ004>011-016>023-039-040-231100-
NORTHEAST SOUTH DAKOTA

CITY           SKY/WX    TMP DP  RH WIND       PRES   REMARKS
ABERDEEN       CLOUDY    20  19  96 NW8       30.08R WCI  10
WATERTOWN      CLOUDY    19  18  95 NW15      30.00S WCI   5
BROOKINGS      CLOUDY    20  18  92 N17       30.01R WCI   5
$$

SDZ017-020-022-023-036>040-048>070-231100-
SOUTHEAST SOUTH DAKOTA

CITY           SKY/WX    TMP DP  RH WIND       PRES   REMARKS
SIOUX FALLS    CLOUDY    22  21  96 NW18      30.02R WCI   7
HURON          CLOUDY    20  19  96 N10       30.08R FOG     WCI   9
CHAMBERLAIN    CLOUDY    23  23 100 W7        30.08R FOG     WCI  15
MITCHELL       CLOUDY    21  20  96 N14       30.09R WCI   8
YANKTON        LGT SNOW  20  18  92 NW23      30.06R FOG     WCI   3
$$

ABBREVIATIONS USED IN REMARKS
   TC - TEMPERATURE IN CELSIUS
  WCI - WIND CHILL INDEX
   HX - HEAT INDEX
  VSB - VISIBILITY




USA.gov is the U.S. government's official web portal to all federal, state and local government web resources and services.